Theta_e
318 318 319 319 318 319 318 318 319 320 321 323 323 324 324 324 321 320 308 317 320 327 329 315 313 313 312 307 308 306 293 291 296 296 299 303 301 308 312 310 315 322 338 340 332
317 317 318 318 318 318 318 318 318 319 321 322 323 323 323 323 317 313 325 333 330 330 314 310 310 310 303 305 305 300 292 295 302 301 300 303 302 305 308 308 311 315 323 338 334
316 317 317 317 316 317 317 317 318 319 320 321 322 322 322 321 312 311 336 335 331 326 315 315 315 312 301 302 302 300 296 301 303 304 304 305 305 307 306 302 307 310 314 324 328
315 315 316 316 315 316 316 316 317 318 319 320 321 321 322 316 302 310 340 337 333 318 315 314 312 302 298 297 303 296 302 303 303 304 302 303 306 305 304 305 310 313 316 317 318
315 315 316 316 316 316 316 316 316 317 318 319 320 322 315 309 310 325 341 336 319 316 313 312 309 303 298 301 302 300 302 305 305 303 300 305 304 303 304 310 311 312 315 313 312
314 314 315 315 315 315 315 315 316 316 317 318 320 322 315 304 317 323 321 318 316 313 314 313 307 308 303 302 300 304 305 305 304 303 303 303 304 304 306 310 310 310 310 312 312
313 313 314 314 314 315 315 315 315 316 317 319 321 320 311 307 318 319 318 314 316 317 313 313 312 307 306 302 306 306 300 302 305 303 302 305 301 302 308 309 308 308 308 310 313
313 312 313 313 314 314 315 315 315 316 318 319 321 316 307 318 319 315 315 316 318 316 315 314 313 308 303 306 305 301 299 293 301 305 306 303 294 304 308 306 306 309 310 310 310
312 312 312 313 313 314 314 313 315 320 321 323 315 311 306 322 317 319 317 315 316 316 314 318 309 304 305 299 295 297 293 296 299 305 304 301 296 304 308 307 305 306 308 309 309
312 311 311 312 312 313 312 313 320 318 318 321 317 308 313 313 317 317 316 317 314 313 311 308 303 299 298 295 290 292 294 296 297 302 303 298 298 303 306 306 305 307 307 308 308
311 311 310 311 311 311 310 313 312 310 315 310 312 310 315 321 320 314 316 314 313 309 300 305 298 295 299 301 301 301 299 297 300 303 300 298 299 302 305 303 303 304 305 306 307
311 310 310 310 311 310 307 311 314 310 303 315 316 316 319 319 311 313 317 309 306 300 303 300 296 304 307 304 301 299 296 296 300 303 299 298 298 302 303 303 304 305 305 306 307
309 309 310 310 309 311 312 315 317 315 304 310 313 312 313 315 310 311 314 309 305 301 301 297 302 308 306 302 301 298 296 296 297 301 302 299 296 299 304 305 306 307 307 306 307
309 309 309 309 311 314 313 316 315 317 298 305 309 312 313 312 308 314 316 309 305 301 301 300 306 305 302 302 301 294 302 302 300 296 290 299 289 296 301 303 305 307 308 307 308
308 309 308 307 306 311 313 315 314 313 289 309 310 317 314 309 310 310 314 309 303 303 302 299 302 301 300 302 304 299 304 300 300 295 293 294 290 296 299 299 302 306 306 309 308
308 308 308 310 310 316 317 316 312 299 291 306 310 308 307 309 309 310 309 310 309 303 303 302 307 305 303 306 305 305 300 298 296 293 287 291 293 294 297 300 302 306 308 309 307
307 306 305 309 309 315 316 312 296 291 307 303 305 307 306 305 306 307 304 301 297 293 294 301 302 305 307 301 303 301 294 286 285 285 287 295 294 296 302 307 308 308 306 305 305
305 305 309 312 315 310 314 303 290 300 301 306 305 305 302 304 303 304 303 300 304 301 296 294 292 302 307 303 299 299 298 290 284 284 289 297 290 295 304 308 309 311 308 310 307
304 307 312 314 313 311 307 294 295 301 303 301 303 301 299 301 302 302 299 298 302 303 295 293 295 305 306 305 302 297 291 297 291 295 291 292 295 300 303 306 308 308 308 308 310
299 304 311 309 311 308 301 297 301 305 304 303 297 301 295 298 299 298 299 304 303 303 302 297 290 302 304 305 302 297 299 289 289 282 283 288 290 290 298 300 304 305 305 309 310
301 305 308 310 312 303 294 299 303 305 304 300 298 297 297 296 298 296 298 302 302 301 301 298 294 295 300 296 294 295 292 291 291 291 285 284 288 298 300 301 303 304 306 306 308
298 297 309 310 299 305 297 300 299 299 301 301 300 299 296 297 296 295 295 298 301 300 296 297 292 288 292 298 297 294 292 291 285 286 289 289 289 303 302 302 303 304 307 307 310
294 299 310 308 293 293 297 298 299 297 297 297 296 297 297 293 289 295 296 300 300 299 295 293 287 281 284 288 292 290 292 291 290 294 286 286 287 302 301 301 304 305 307 307 308
296 294 302 302 301 296 294 295 296 299 298 299 296 296 293 292 294 292 294 299 299 298 305 298 288 285 279 284 288 286 290 291 287 280 284 286 287 292 294 298 300 301 304 306 307
300 295 297 291 292 295 295 295 294 294 299 299 295 295 292 288 291 291 294 294 297 300 296 291 284 287 288 291 291 290 289 290 287 287 283 286 287 291 296 297 299 301 304 306 306
295 293 296 294 297 297 296 294 295 296 295 293 291 294 293 288 289 288 290 289 290 293 290 291 283 287 285 290 290 287 290 290 289 289 290 290 290 297 298 299 300 303 305 304 303
300 301 295 294 294 293 294 297 296 296 297 297 295 292 291 293 294 293 292 292 292 289 287 286 284 281 278 288 288 282 288 289 290 292 291 286 291 296 296 297 298 301 303 304 304
Wind_Speed
19 19 17 16 15 14 14 14 14 13 13 12 12 10 10 12 17 3 5 8 7 5 2 5 7 11 10 6 7 6 1 6 13 5 9 4 3 2 6 5 11 7 17 19 22
20 20 18 18 17 16 15 15 14 14 13 13 12 11 10 10 4 9 11 8 7 5 3 7 9 11 5 7 6 6 4 13 11 6 7 5 2 1 4 5 4 9 9 20 20
21 20 19 19 19 17 16 15 14 14 13 12 12 11 10 7 5 8 17 11 9 6 3 6 12 7 8 7 9 8 9 12 14 10 5 8 8 4 6 4 3 8 13 11 7
22 22 21 20 21 18 17 17 16 14 13 12 12 13 12 4 4 3 10 11 10 1 5 7 9 6 5 7 11 5 12 14 13 4 5 7 9 9 3 5 3 9 6 8 6
21 22 21 20 19 18 17 16 16 15 13 11 10 10 8 4 10 8 10 7 4 3 7 9 10 6 7 8 8 8 10 8 10 6 2 4 8 7 9 8 7 3 8 7 6
22 22 22 22 20 19 17 16 14 13 12 10 9 11 3 9 3 14 10 7 8 9 13 13 7 7 6 6 5 6 7 9 9 8 3 6 6 5 8 8 10 7 7 7 7
24 24 23 22 22 20 18 16 14 13 12 9 7 5 5 15 8 10 12 11 11 13 9 5 7 6 9 9 9 9 7 8 8 4 6 7 8 9 9 9 10 9 5 3 6
25 25 25 25 24 22 20 18 15 13 11 7 3 3 9 9 12 12 12 10 11 4 5 7 7 7 4 9 11 8 5 4 8 11 10 8 8 10 11 9 11 8 6 7 8
27 27 27 26 25 24 21 19 15 9 6 3 3 3 10 8 6 12 12 12 10 7 5 5 4 5 8 5 6 6 7 9 12 17 9 9 7 12 11 11 12 8 7 7 8
27 28 28 27 25 23 25 14 4 6 3 6 7 4 7 11 7 7 7 7 7 6 4 5 4 4 5 1 7 8 7 9 11 9 14 8 8 9 10 6 9 10 10 10 10
29 28 29 28 27 20 13 2 2 0 5 10 10 8 12 15 3 6 8 10 5 4 6 8 4 8 15 14 12 10 7 6 8 8 5 8 8 11 11 7 6 8 8 10 11
31 32 32 32 27 24 2 4 6 5 9 16 22 22 21 18 7 9 6 6 6 7 8 7 9 17 13 7 5 10 6 8 9 10 3 7 9 9 9 8 9 12 11 12 10
30 31 33 34 34 3 5 8 8 8 4 15 21 18 21 20 18 9 10 8 9 9 11 9 13 14 14 6 5 7 5 6 9 11 9 6 8 7 8 7 10 12 12 8 12
30 31 30 33 5 5 4 9 9 6 4 9 5 7 3 3 6 9 10 10 8 13 11 9 11 11 10 1 3 5 9 8 7 6 4 5 9 8 8 14 12 16 20 13 11
31 30 30 14 8 6 7 8 7 5 4 9 7 4 6 7 6 9 9 6 11 11 7 11 10 9 8 5 8 9 7 4 5 7 6 6 5 12 7 10 14 14 12 20 15
34 33 25 0 4 9 11 9 4 1 7 5 6 7 7 7 11 5 6 6 3 7 10 12 10 8 9 15 9 8 6 6 4 1 9 3 9 19 9 12 6 10 20 16 9
37 36 19 5 5 11 7 5 2 4 10 11 6 6 8 6 10 6 10 8 7 5 8 12 15 17 16 14 13 8 3 3 5 3 15 9 9 14 6 13 15 8 9 4 5
38 36 6 6 7 7 5 3 4 9 9 14 12 14 6 6 10 12 7 6 10 11 8 9 10 10 9 5 4 5 3 1 7 7 17 10 9 8 6 10 11 2 8 10 2
32 5 4 5 9 4 3 2 3 5 5 9 10 6 4 13 9 14 8 3 6 11 3 5 4 16 11 10 7 8 5 6 5 3 10 9 14 11 5 14 18 11 11 13 11
9 5 5 5 5 3 1 5 3 7 7 8 4 7 6 11 10 14 9 9 9 14 7 7 5 5 13 13 6 7 7 8 6 4 10 2 8 4 12 14 15 21 14 20 23
1 4 2 6 2 2 3 3 7 13 8 7 7 7 7 7 9 8 5 13 12 10 8 7 2 4 9 5 10 14 8 6 1 2 2 9 7 3 10 14 12 11 11 10 13
7 4 3 4 1 4 2 3 1 7 8 5 4 8 6 8 6 6 6 7 12 9 6 4 2 4 8 9 10 12 10 4 1 7 2 3 13 5 6 10 12 17 8 7 8
7 5 4 5 4 5 7 6 5 3 4 4 3 8 8 6 4 5 7 11 10 6 4 5 4 5 9 7 6 4 8 9 7 2 5 4 10 15 17 18 6 9 8 6 6
4 5 5 4 4 5 7 6 7 6 3 5 5 5 6 5 4 4 7 8 13 6 7 6 4 6 6 8 11 17 19 14 5 0 6 11 17 18 11 15 14 14 14 10 7
3 3 4 5 8 9 6 8 9 8 6 4 2 6 6 4 7 7 9 10 13 11 7 3 5 7 9 12 16 17 16 16 17 15 10 20 17 14 9 9 12 11 14 15 9
4 5 6 11 10 8 5 5 9 7 8 6 5 9 6 4 5 6 6 5 4 7 7 7 5 7 6 11 16 21 12 15 16 16 9 10 15 13 13 10 12 13 14 13 18
5 6 3 7 7 8 7 1 5 7 5 4 8 7 7 7 6 6 5 7 8 6 6 5 2 3 5 11 14 12 9 12 8 6 4 2 6 6 13 13 11 7 8 10 11
Wind_Direction
359 354 349 347 344 341 337 330 322 317 314 311 312 318 320 313 303 184 249 225 180 182 221 267 234 242 253 266 241 222 22 277 267 303 295 197 151 236 116 44 67 56 82 131 145
356 351 347 345 342 338 334 329 322 316 312 312 314 321 321 327 279 255 241 170 157 185 223 247 256 226 214 243 252 156 180 241 254 310 341 327 155 275 59 14 104 93 81 129 149
354 350 346 343 341 335 330 326 320 313 310 311 314 319 318 319 285 243 150 173 179 181 251 285 275 249 206 233 247 224 215 257 278 292 8 346 347 44 70 351 241 167 152 152 173
350 348 345 340 337 332 327 323 318 311 306 307 314 318 308 233 289 141 172 172 184 208 272 297 285 277 213 248 250 206 229 234 258 279 24 337 323 340 91 253 303 66 146 136 157
347 344 341 337 333 328 324 319 315 308 303 304 312 322 335 244 247 152 167 180 173 198 238 247 271 246 240 247 273 219 245 272 293 272 339 337 309 293 314 314 331 96 105 106 92
345 342 338 335 331 327 321 316 309 301 297 301 312 311 228 269 194 151 172 178 219 210 250 245 265 303 257 285 288 267 229 241 281 238 196 281 273 316 298 300 308 331 162 158 155
344 341 337 333 330 327 320 315 307 298 292 295 309 302 268 240 159 174 194 194 215 228 260 308 301 23 327 316 282 293 318 320 304 256 231 208 286 250 252 275 253 270 214 239 195
341 338 335 333 330 326 320 314 304 294 283 262 263 269 256 263 225 203 202 226 239 255 283 324 345 329 290 295 328 308 348 292 263 263 240 167 254 271 257 243 228 237 206 216 239
340 337 335 332 330 326 320 310 297 287 229 165 172 210 265 271 220 216 185 210 228 186 246 251 30 264 313 274 309 293 236 245 264 241 207 162 229 250 265 278 210 205 204 241 238
338 334 332 329 328 326 319 288 257 320 223 192 262 262 251 244 206 207 239 218 252 185 217 177 221 213 281 223 231 249 232 251 258 270 208 180 212 238 258 238 202 196 205 214 221
336 333 331 328 326 326 337 18 23 72 244 204 196 235 298 223 123 174 218 228 241 230 226 241 194 226 229 219 238 250 268 329 319 331 8 214 220 221 237 261 228 247 243 221 216
336 332 332 327 324 322 251 256 320 285 292 227 238 241 259 262 213 183 218 194 216 244 241 268 234 240 251 270 349 334 336 325 306 301 293 260 247 236 224 229 225 248 245 225 225
334 331 330 326 320 287 222 274 331 339 284 286 241 234 233 228 243 192 187 201 229 222 245 231 261 230 254 230 282 291 267 265 256 281 299 311 301 309 295 263 245 242 233 229 208
332 328 330 330 327 345 285 349 326 21 314 267 183 208 203 117 247 209 206 189 211 240 259 253 269 283 283 228 312 281 276 280 302 15 276 16 294 292 286 291 279 258 237 226 218
329 328 327 322 298 306 336 330 341 46 322 149 122 114 169 170 155 205 203 209 215 254 249 255 267 296 317 229 226 246 281 314 320 309 329 304 309 278 275 283 279 282 243 226 212
327 324 333 226 224 255 301 323 1 27 254 190 141 181 166 209 274 127 171 243 214 250 267 267 282 288 279 295 288 276 302 303 315 287 272 214 222 267 262 247 280 303 322 204 168
326 318 319 264 253 321 331 331 343 218 314 360 10 145 192 217 221 223 181 193 187 244 263 264 258 256 256 262 267 263 231 295 322 321 256 232 244 256 287 330 297 269 317 73 153
326 313 238 226 266 315 346 344 248 267 21 0 2 354 345 332 314 306 273 214 215 222 240 250 267 273 353 354 338 319 244 179 220 220 271 291 262 263 318 329 290 251 360 5 308
323 309 255 250 247 15 38 274 280 32 10 343 327 284 356 336 344 317 259 336 312 45 54 336 312 336 344 1 27 319 338 277 294 209 269 257 271 290 323 20 2 339 1 5 358
319 292 277 332 336 47 49 257 357 61 354 348 358 352 350 342 353 2 334 4 13 42 34 359 330 349 328 342 339 321 313 343 335 297 263 247 315 301 37 25 12 359 2 12 1
247 303 294 328 52 97 216 284 47 74 31 12 4 318 340 332 338 336 314 327 39 16 31 34 1 329 11 359 340 335 334 333 274 338 245 306 262 47 54 20 355 354 359 18 1
331 306 315 11 3 215 117 8 14 38 25 22 338 323 357 1 357 340 331 304 14 38 30 35 315 316 301 305 310 299 294 304 52 306 277 220 265 297 16 9 344 323 345 0 22
312 265 282 39 8 350 7 357 283 96 42 33 345 24 360 333 339 293 347 323 4 57 50 23 359 347 332 336 351 355 339 344 316 206 198 240 275 322 315 304 272 276 280 300 338
297 317 342 355 70 7 1 306 359 127 111 73 343 305 281 291 296 299 326 330 357 78 149 125 181 189 210 263 294 292 303 307 288 22 288 267 301 304 335 1 355 355 333 262 233
236 345 7 322 332 324 326 311 305 298 95 63 284 320 359 355 345 318 330 337 337 326 352 17 227 245 255 266 277 283 299 307 300 289 276 296 294 320 21 353 353 341 333 338 261
8 356 350 297 299 305 284 265 284 6 35 3 326 302 338 343 288 314 2 356 284 336 340 342 298 319 292 289 285 289 301 291 286 290 321 341 317 6 330 344 346 359 8 8 10
343 335 305 292 302 298 307 351 348 13 324 285 352 355 333 322 26 347 306 277 241 252 278 281 273 341 272 276 292 295 262 273 289 353 19 326 267 316 335 340 325 353 360 8 7